Time,TemperatureF,DewpointF,PressureIn,WindDirection,WindDirectionDegrees,WindSpeedMPH,WindSpeedGustMPH,Humidity,HourlyPrecipIn,Conditions,Clouds,dailyrainin,SoftwareType,DateUTC
2013-02-20 00:00:00,48.8,42.9,29.96,WSW,248,5.0,12.0,80,0.00,,SKC,0.00,VWS V13.00,2013-02-20 05:00:00,
2013-02-20 00:05:00,48.7,42.8,29.97,West,259,1.0,7.0,80,0.00,,SKC,0.00,VWS V13.00,2013-02-20 05:05:00,
2013-02-20 00:10:00,48.5,42.6,29.97,WNW,284,1.0,6.0,80,0.00,,SKC,0.00,VWS V13.00,2013-02-20 05:10:00,
2013-02-20 00:15:00,48.2,42.3,29.97,WSW,258,2.0,7.0,80,0.00,,SKC,0.00,VWS V13.00,2013-02-20 05:15:00,
2013-02-20 00:20:00,48.0,42.1,29.97,West,259,4.0,5.0,80,0.00,,SKC,0.00,VWS V13.00,2013-02-20 05:20:00,
2013-02-20 00:25:00,47.7,41.8,29.97,West,259,3.0,6.0,80,0.00,,SKC,0.00,VWS V13.00,2013-02-20 05:25:00,
2013-02-20 00:30:00,47.4,41.5,29.97,West,270,4.0,6.0,80,0.00,,SKC,0.00,VWS V13.00,2013-02-20 05:30:00,
2013-02-20 00:35:00,47.2,41.3,29.97,WSW,240,3.0,6.0,80,0.00,,SKC,0.00,VWS V13.00,2013-02-20 05:35:00,
2013-02-20 00:40:00,47.0,41.2,29.97,West,261,2.0,6.0,80,0.00,,SKC,0.00,VWS V13.00,2013-02-20 05:40:00,
2013-02-20 00:45:00,46.9,41.1,29.97,West,260,2.0,6.0,80,0.00,,SKC,0.00,VWS V13.00,2013-02-20 05:45:00,
2013-02-20 00:50:00,46.8,41.0,29.97,WNW,286,2.0,9.0,80,0.00,,SKC,0.00,VWS V13.00,2013-02-20 05:50:00,
2013-02-20 00:55:00,46.8,41.0,29.97,West,263,3.0,8.0,80,0.00,,SKC,0.00,VWS V13.00,2013-02-20 05:55:00,
2013-02-20 01:00:00,46.7,40.9,29.97,West,259,2.0,7.0,80,0.00,,SKC,0.00,VWS V13.00,2013-02-20 06:00:00,
2013-02-20 01:05:00,46.6,40.8,29.98,WSW,256,3.0,6.0,80,0.00,,SKC,0.00,VWS V13.00,2013-02-20 06:05:00,
2013-02-20 01:10:00,46.5,40.7,29.98,WSW,258,4.0,5.0,80,0.00,,SKC,0.00,VWS V13.00,2013-02-20 06:10:00,
2013-02-20 01:15:00,46.3,40.5,29.98,West,262,3.0,5.0,80,0.00,,SKC,0.00,VWS V13.00,2013-02-20 06:15:00,
2013-02-20 01:20:00,46.1,40.3,29.98,West,260,3.0,5.0,80,0.00,,SKC,0.00,VWS V13.00,2013-02-20 06:20:00,
2013-02-20 01:25:00,46.0,40.2,29.98,WSW,258,2.0,5.0,80,0.00,,SKC,0.00,VWS V13.00,2013-02-20 06:25:00,
2013-02-20 01:30:00,45.8,40.0,29.97,WSW,244,4.0,6.0,80,0.00,,SKC,0.00,VWS V13.00,2013-02-20 06:30:00,
2013-02-20 01:35:00,45.7,39.9,29.97,WSW,242,3.0,7.0,80,0.00,,SKC,0.00,VWS V13.00,2013-02-20 06:35:00,
2013-02-20 01:40:00,45.6,39.8,29.98,West,261,3.0,5.0,80,0.00,,SKC,0.00,VWS V13.00,2013-02-20 06:40:00,
2013-02-20 01:45:00,45.5,39.7,29.98,West,274,5.0,6.0,80,0.00,,SKC,0.00,VWS V13.00,2013-02-20 06:45:00,
2013-02-20 01:50:00,45.5,39.7,29.98,West,263,4.0,9.0,80,0.00,,SKC,0.00,VWS V13.00,2013-02-20 06:50:00,
2013-02-20 01:55:00,45.6,39.8,29.98,WSW,254,5.0,8.0,80,0.00,,SKC,0.00,VWS V13.00,2013-02-20 06:55:00,
2013-02-20 02:00:00,45.7,39.9,29.98,West,277,3.0,7.0,80,0.00,,SKC,0.00,VWS V13.00,2013-02-20 07:00:00,
2013-02-20 02:05:00,45.9,40.1,29.98,WNW,287,3.0,9.0,80,0.00,,SKC,0.00,VWS V13.00,2013-02-20 07:05:00,
2013-02-20 02:10:00,45.9,40.1,29.98,WNW,282,3.0,8.0,80,0.00,,SKC,0.00,VWS V13.00,2013-02-20 07:10:00,
2013-02-20 02:15:00,45.9,40.1,29.98,West,268,4.0,6.0,80,0.00,,SKC,0.00,VWS V13.00,2013-02-20 07:15:00,
2013-02-20 02:20:00,45.9,40.1,29.98,WNW,289,4.0,7.0,80,0.00,,SKC,0.00,VWS V13.00,2013-02-20 07:20:00,
2013-02-20 02:25:00,45.9,40.1,29.98,West,274,6.0,6.0,80,0.00,,SKC,0.00,VWS V13.00,2013-02-20 07:25:00,
2013-02-20 02:30:00,45.8,40.0,29.98,West,279,5.0,8.0,80,0.00,,SKC,0.00,VWS V13.00,2013-02-20 07:30:00,
2013-02-20 02:35:00,45.7,39.9,29.99,West,277,6.0,10.0,80,0.00,,SKC,0.00,VWS V13.00,2013-02-20 07:35:00,
2013-02-20 02:40:00,45.6,39.8,29.99,West,277,3.0,7.0,80,0.00,,SKC,0.00,VWS V13.00,2013-02-20 07:40:00,
2013-02-20 02:45:00,45.6,39.8,29.99,West,263,8.0,8.0,80,0.00,,SKC,0.00,VWS V13.00,2013-02-20 07:45:00,
2013-02-20 02:50:00,45.6,39.8,29.99,West,278,4.0,10.0,80,0.00,,SKC,0.00,VWS V13.00,2013-02-20 07:50:00,
2013-02-20 02:55:00,45.5,39.7,29.99,WNW,288,2.0,8.0,80,0.00,,SKC,0.00,VWS V13.00,2013-02-20 07:55:00,
2013-02-20 03:00:00,45.5,39.7,29.99,West,276,2.0,10.0,80,0.00,,SKC,0.00,VWS V13.00,2013-02-20 08:00:00,
2013-02-20 03:05:00,45.4,39.6,29.99,West,273,5.0,8.0,80,0.00,,SKC,0.00,VWS V13.00,2013-02-20 08:05:00,
2013-02-20 03:10:00,45.4,39.6,29.99,West,270,2.0,12.0,80,0.00,,SKC,0.00,VWS V13.00,2013-02-20 08:10:00,
2013-02-20 03:15:00,45.3,39.5,29.99,WSW,257,3.0,9.0,80,0.00,,SKC,0.00,VWS V13.00,2013-02-20 08:15:00,
2013-02-20 03:20:00,45.3,39.5,29.99,West,273,2.0,8.0,80,0.00,,SKC,0.00,VWS V13.00,2013-02-20 08:20:00,
2013-02-20 03:25:00,45.3,39.8,29.99,WNW,291,6.0,7.0,81,0.00,,SKC,0.00,VWS V13.00,2013-02-20 08:25:00,
2013-02-20 03:30:00,45.2,39.7,29.99,WNW,298,3.0,9.0,81,0.00,,SKC,0.00,VWS V13.00,2013-02-20 08:30:00,
2013-02-20 03:35:00,45.1,39.6,29.99,NW,304,3.0,8.0,81,0.00,,SKC,0.00,VWS V13.00,2013-02-20 08:35:00,
2013-02-20 03:40:00,45.0,39.2,29.99,WNW,282,1.0,7.0,80,0.00,,SKC,0.00,VWS V13.00,2013-02-20 08:40:00,
2013-02-20 03:45:00,44.9,39.1,29.99,WNW,288,0.0,6.0,80,0.00,,SKC,0.00,VWS V13.00,2013-02-20 08:45:00,
2013-02-20 03:50:00,44.7,38.9,29.99,NW,319,2.0,9.0,80,0.00,,SKC,0.00,VWS V13.00,2013-02-20 08:50:00,
2013-02-20 03:55:00,44.5,39.0,29.99,WNW,291,7.0,8.0,81,0.00,,SKC,0.00,VWS V13.00,2013-02-20 08:55:00,
2013-02-20 04:05:00,44.2,38.4,30.00,NW,305,2.0,9.0,80,0.00,,SKC,0.00,VWS V13.00,2013-02-20 09:05:00,
2013-02-20 04:16:00,44.1,38.3,30.00,WNW,292,5.0,9.0,80,0.00,,SKC,0.00,VWS V13.00,2013-02-20 09:16:00,
2013-02-20 04:21:00,43.5,38.1,30.01,West,279,4.0,10.0,81,0.00,,SKC,0.00,VWS V13.00,2013-02-20 09:21:00,
2013-02-20 04:26:00,43.3,37.6,30.01,NW,308,2.0,13.0,80,0.00,,SKC,0.00,VWS V13.00,2013-02-20 09:26:00,
2013-02-20 04:31:00,42.9,37.2,30.01,North,350,6.0,12.0,80,0.00,,SKC,0.00,VWS V13.00,2013-02-20 09:31:00,
2013-02-20 04:36:00,42.7,37.0,30.01,WNW,290,8.0,10.0,80,0.00,,SKC,0.00,VWS V13.00,2013-02-20 09:36:00,
2013-02-20 04:41:00,42.5,36.8,30.01,NW,307,4.0,11.0,80,0.00,,SKC,0.00,VWS V13.00,2013-02-20 09:41:00,
2013-02-20 04:46:00,42.2,36.5,30.01,WNW,299,2.0,10.0,80,0.00,,SKC,0.00,VWS V13.00,2013-02-20 09:46:00,
2013-02-20 04:51:00,42.0,36.3,30.02,NW,312,11.0,11.0,80,0.00,,SKC,0.00,VWS V13.00,2013-02-20 09:51:00,
2013-02-20 04:56:00,41.8,36.1,30.02,WNW,294,2.0,12.0,80,0.00,,SKC,0.00,VWS V13.00,2013-02-20 09:56:00,
2013-02-20 05:01:00,41.8,36.1,30.02,West,277,5.0,11.0,80,0.00,,SKC,0.00,VWS V13.00,2013-02-20 10:01:00,
2013-02-20 05:06:00,41.7,36.0,30.02,NW,313,3.0,11.0,80,0.00,,SKC,0.00,VWS V13.00,2013-02-20 10:06:00,
2013-02-20 05:11:00,41.6,35.9,30.03,NW,325,1.0,10.0,80,0.00,,SKC,0.00,VWS V13.00,2013-02-20 10:11:00,
2013-02-20 05:16:00,41.5,35.8,30.03,NW,307,4.0,7.0,80,0.00,,SKC,0.00,VWS V13.00,2013-02-20 10:16:00,
2013-02-20 05:21:00,41.4,35.7,30.04,NW,325,4.0,9.0,80,0.00,,SKC,0.00,VWS V13.00,2013-02-20 10:21:00,
2013-02-20 05:26:00,41.3,35.6,30.04,NNW,340,1.0,8.0,80,0.00,,SKC,0.00,VWS V13.00,2013-02-20 10:26:00,
2013-02-20 05:31:00,41.1,35.4,30.04,NW,305,3.0,7.0,80,0.00,,SKC,0.00,VWS V13.00,2013-02-20 10:31:00,
2013-02-20 05:36:00,41.0,35.3,30.05,WNW,298,3.0,7.0,80,0.00,,SKC,0.00,VWS V13.00,2013-02-20 10:36:00,
2013-02-20 05:41:00,40.9,35.2,30.05,NW,320,6.0,10.0,80,0.00,,SKC,0.00,VWS V13.00,2013-02-20 10:41:00,
2013-02-20 05:46:00,40.9,35.2,30.04,West,280,5.0,9.0,80,0.00,,SKC,0.00,VWS V13.00,2013-02-20 10:46:00,
2013-02-20 05:51:00,40.8,35.1,30.04,NW,308,6.0,13.0,80,0.00,,SKC,0.00,VWS V13.00,2013-02-20 10:51:00,
2013-02-20 05:56:00,40.6,34.9,30.05,NW,311,7.0,12.0,80,0.00,,SKC,0.00,VWS V13.00,2013-02-20 10:56:00,
2013-02-20 06:01:00,40.5,34.8,30.05,NNW,327,5.0,9.0,80,0.00,,SKC,0.00,VWS V13.00,2013-02-20 11:01:00,
2013-02-20 06:06:00,40.4,34.7,30.05,NW,316,4.0,9.0,80,0.00,,SKC,0.00,VWS V13.00,2013-02-20 11:06:00,
2013-02-20 06:11:00,40.2,34.5,30.06,NW,313,2.0,8.0,80,0.00,,SKC,0.00,VWS V13.00,2013-02-20 11:11:00,
2013-02-20 06:17:00,40.1,34.4,30.05,NW,307,2.0,3.0,80,0.00,,SKC,0.00,VWS V13.00,2013-02-20 11:17:00,
2013-02-20 06:22:00,39.9,34.2,30.06,NW,318,0.0,2.0,80,0.00,,SKC,0.00,VWS V13.00,2013-02-20 11:22:00,
2013-02-20 06:27:00,39.7,34.0,30.07,WNW,286,5.0,5.0,80,0.00,,SKC,0.00,VWS V13.00,2013-02-20 11:27:00,
2013-02-20 06:32:00,39.4,33.8,30.07,WNW,288,4.0,4.0,80,0.00,,SKC,0.00,VWS V13.00,2013-02-20 11:32:00,
2013-02-20 06:37:00,39.1,33.5,30.07,WNW,290,3.0,4.0,80,0.00,,SKC,0.00,VWS V13.00,2013-02-20 11:37:00,
2013-02-20 06:42:00,38.9,33.3,30.08,WNW,300,1.0,2.0,80,0.00,,SKC,0.00,VWS V13.00,2013-02-20 11:42:00,
2013-02-20 06:47:00,38.8,33.2,30.08,NNW,328,2.0,4.0,80,0.00,,SKC,0.00,VWS V13.00,2013-02-20 11:47:00,
2013-02-20 06:51:00,38.6,33.0,30.08,NW,311,1.0,1.0,80,0.00,,SKC,0.00,VWS V13.00,2013-02-20 11:51:00,
2013-02-20 06:56:00,38.3,32.7,30.08,WNW,302,1.0,2.0,80,0.00,,SKC,0.00,VWS V13.00,2013-02-20 11:56:00,
2013-02-20 07:02:00,38.2,32.6,30.08,WNW,302,5.0,5.0,80,0.00,,SKC,0.00,VWS V13.00,2013-02-20 12:02:00,
2013-02-20 07:07:00,38.0,32.4,30.08,WNW,294,1.0,4.0,80,0.00,,SKC,0.00,VWS V13.00,2013-02-20 12:07:00,
2013-02-20 07:12:00,37.9,32.3,30.08,NW,317,2.0,2.0,80,0.00,,SKC,0.00,VWS V13.00,2013-02-20 12:12:00,
2013-02-20 07:17:00,37.8,32.2,30.09,NNW,333,2.0,3.0,80,0.00,,SKC,0.00,VWS V13.00,2013-02-20 12:17:00,
2013-02-20 07:22:00,37.8,32.2,30.09,NW,310,3.0,3.0,80,0.00,,SKC,0.00,VWS V13.00,2013-02-20 12:22:00,
2013-02-20 07:26:00,37.7,32.1,30.09,NW,315,2.0,3.0,80,0.00,,SKC,0.00,VWS V13.00,2013-02-20 12:26:00,
2013-02-20 07:31:00,37.8,32.2,30.09,NW,318,3.0,5.0,80,0.00,,SKC,0.00,VWS V13.00,2013-02-20 12:31:00,
2013-02-20 07:36:00,38.0,32.4,30.10,WNW,300,5.0,5.0,80,0.00,,SKC,0.00,VWS V13.00,2013-02-20 12:36:00,
2013-02-20 07:41:00,38.2,32.6,30.10,WNW,286,7.0,7.0,80,0.00,,SKC,0.00,VWS V13.00,2013-02-20 12:41:00,
2013-02-20 07:46:00,38.4,32.8,30.10,NW,314,4.0,6.0,80,0.00,,SKC,0.00,VWS V13.00,2013-02-20 12:46:00,
2013-02-20 07:51:00,38.6,33.0,30.11,NW,319,10.0,10.0,80,0.00,,SKC,0.00,VWS V13.00,2013-02-20 12:51:00,
2013-02-20 07:56:00,38.8,33.2,30.10,NW,313,5.0,5.0,80,0.00,,SKC,0.00,VWS V13.00,2013-02-20 12:56:00,
2013-02-20 08:01:00,39.1,33.5,30.11,NW,304,10.0,11.0,80,0.00,,SKC,0.00,VWS V13.00,2013-02-20 13:01:00,
2013-02-20 08:06:00,39.2,33.6,30.10,NW,311,7.0,7.0,80,0.00,,SKC,0.00,VWS V13.00,2013-02-20 13:06:00,
2013-02-20 08:11:00,39.4,33.8,30.11,WNW,296,5.0,5.0,80,0.00,,SKC,0.00,VWS V13.00,2013-02-20 13:11:00,
2013-02-20 08:16:00,39.6,33.6,30.11,NW,312,9.0,9.0,79,0.00,,SKC,0.00,VWS V13.00,2013-02-20 13:16:00,
2013-02-20 08:21:00,39.9,33.9,30.11,NW,317,4.0,7.0,79,0.00,,SKC,0.00,VWS V13.00,2013-02-20 13:21:00,
2013-02-20 08:26:00,40.2,34.2,30.11,NW,311,7.0,7.0,79,0.00,,SKC,0.00,VWS V13.00,2013-02-20 13:26:00,
2013-02-20 08:31:00,40.6,34.6,30.11,NNW,331,11.0,11.0,79,0.00,,SKC,0.00,VWS V13.00,2013-02-20 13:31:00,
2013-02-20 08:36:00,40.9,34.6,30.11,WNW,299,7.0,7.0,78,0.00,,SKC,0.00,VWS V13.00,2013-02-20 13:36:00,
2013-02-20 08:41:00,41.3,35.0,30.11,NW,318,5.0,5.0,78,0.00,,SKC,0.00,VWS V13.00,2013-02-20 13:41:00,
2013-02-20 08:46:00,41.5,35.2,30.11,NW,315,8.0,8.0,78,0.00,,SKC,0.00,VWS V13.00,2013-02-20 13:46:00,
2013-02-20 08:51:00,41.8,35.5,30.11,NW,318,6.0,7.0,78,0.00,,SKC,0.00,VWS V13.00,2013-02-20 13:51:00,
2013-02-20 08:56:00,42.0,35.7,30.11,NW,311,10.0,10.0,78,0.00,,SKC,0.00,VWS V13.00,2013-02-20 13:56:00,
2013-02-20 09:02:00,42.3,35.6,30.11,NNW,332,9.0,9.0,77,0.00,,SKC,0.00,VWS V13.00,2013-02-20 14:02:00,
2013-02-20 09:07:00,42.4,35.7,30.11,NNW,345,6.0,11.0,77,0.00,,SKC,0.00,VWS V13.00,2013-02-20 14:07:00,
2013-02-20 09:11:00,42.9,36.2,30.11,NNW,327,12.0,12.0,77,0.00,,SKC,0.00,VWS V13.00,2013-02-20 14:11:00,
2013-02-20 09:16:00,42.9,36.2,30.11,NW,324,8.0,8.0,77,0.00,,SKC,0.00,VWS V13.00,2013-02-20 14:16:00,
2013-02-20 09:21:00,43.2,36.5,30.10,NW,306,11.0,14.0,77,0.00,,SKC,0.00,VWS V13.00,2013-02-20 14:21:00,
2013-02-20 09:26:00,43.5,36.5,30.10,WNW,300,9.0,12.0,76,0.00,,SKC,0.00,VWS V13.00,2013-02-20 14:26:00,
2013-02-20 09:31:00,43.7,36.6,30.10,NW,319,10.0,10.0,76,0.00,,SKC,0.00,VWS V13.00,2013-02-20 14:31:00,
2013-02-20 09:36:00,44.2,37.1,30.10,NNW,328,8.0,8.0,76,0.00,,SKC,0.00,VWS V13.00,2013-02-20 14:36:00,
2013-02-20 09:41:00,44.6,37.5,30.10,WSW,247,5.0,5.0,76,0.00,,SKC,0.00,VWS V13.00,2013-02-20 14:41:00,
2013-02-20 09:46:00,45.0,37.6,30.10,WNW,288,11.0,11.0,75,0.00,,SKC,0.00,VWS V13.00,2013-02-20 14:46:00,
2013-02-20 09:51:00,45.1,37.7,30.10,West,279,6.0,7.0,75,0.00,,SKC,0.00,VWS V13.00,2013-02-20 14:51:00,
2013-02-20 09:56:00,45.4,38.0,30.09,NW,304,7.0,11.0,75,0.00,,SKC,0.00,VWS V13.00,2013-02-20 14:56:00,
2013-02-20 10:01:00,45.8,38.3,30.10,NW,318,7.0,7.0,75,0.00,,SKC,0.00,VWS V13.00,2013-02-20 15:01:00,
2013-02-20 10:06:00,46.4,38.9,30.10,NW,304,10.0,12.0,75,0.00,,SKC,0.00,VWS V13.00,2013-02-20 15:06:00,
2013-02-20 10:11:00,46.9,39.1,30.10,West,276,7.0,8.0,74,0.00,,SKC,0.00,VWS V13.00,2013-02-20 15:11:00,
2013-02-20 10:17:00,47.3,39.5,30.10,WNW,290,7.0,11.0,74,0.00,,SKC,0.00,VWS V13.00,2013-02-20 15:17:00,
2013-02-20 10:22:00,47.4,39.2,30.10,WNW,298,8.0,8.0,73,0.00,,SKC,0.00,VWS V13.00,2013-02-20 15:22:00,
2013-02-20 10:27:00,47.6,39.4,30.10,NNW,329,3.0,8.0,73,0.00,,SKC,0.00,VWS V13.00,2013-02-20 15:27:00,
2013-02-20 10:32:00,48.2,40.0,30.11,NW,319,7.0,8.0,73,0.00,,SKC,0.00,VWS V13.00,2013-02-20 15:32:00,
2013-02-20 10:37:00,48.6,40.0,30.11,West,272,6.0,13.0,72,0.00,,SKC,0.00,VWS V13.00,2013-02-20 15:37:00,
2013-02-20 10:42:00,48.8,40.2,30.11,NW,316,7.0,10.0,72,0.00,,SKC,0.00,VWS V13.00,2013-02-20 15:42:00,
2013-02-20 10:47:00,49.2,40.6,30.11,NW,313,8.0,11.0,72,0.00,,SKC,0.00,VWS V13.00,2013-02-20 15:47:00,
2013-02-20 10:52:00,49.5,40.5,30.11,WNW,300,7.0,8.0,71,0.00,,SKC,0.00,VWS V13.00,2013-02-20 15:52:00,
2013-02-20 10:57:00,49.7,40.7,30.10,West,260,6.0,10.0,71,0.00,,SKC,0.00,VWS V13.00,2013-02-20 15:57:00,
2013-02-20 11:02:00,49.9,40.9,30.10,NNW,331,2.0,11.0,71,0.00,,SKC,0.00,VWS V13.00,2013-02-20 16:02:00,
2013-02-20 11:07:00,50.4,41.0,30.10,NW,319,6.0,11.0,70,0.00,,SKC,0.00,VWS V13.00,2013-02-20 16:07:00,
2013-02-20 11:12:00,50.8,41.4,30.10,NNW,331,14.0,15.0,70,0.00,,SKC,0.00,VWS V13.00,2013-02-20 16:12:00,
2013-02-20 11:17:00,50.9,41.1,30.09,NW,325,9.0,15.0,69,0.00,,SKC,0.00,VWS V13.00,2013-02-20 16:17:00,
2013-02-20 11:22:00,50.9,40.7,30.10,West,279,3.0,11.0,68,0.00,,SKC,0.00,VWS V13.00,2013-02-20 16:22:00,
2013-02-20 11:27:00,50.9,40.7,30.09,North,350,5.0,12.0,68,0.00,,SKC,0.00,VWS V13.00,2013-02-20 16:27:00,
2013-02-20 11:32:00,51.3,41.1,30.10,NW,306,7.0,10.0,68,0.00,,SKC,0.00,VWS V13.00,2013-02-20 16:32:00,
2013-02-20 11:37:00,51.8,41.6,30.10,WNW,302,5.0,9.0,68,0.00,,SKC,0.00,VWS V13.00,2013-02-20 16:37:00,
2013-02-20 11:42:00,52.3,41.7,30.09,NW,319,7.0,9.0,67,0.00,,SKC,0.00,VWS V13.00,2013-02-20 16:42:00,
2013-02-20 11:47:00,52.4,41.4,30.09,WNW,287,3.0,6.0,66,0.00,,SKC,0.00,VWS V13.00,2013-02-20 16:47:00,
2013-02-20 11:52:00,52.7,41.7,30.09,NW,322,11.0,13.0,66,0.00,,SKC,0.00,VWS V13.00,2013-02-20 16:52:00,
2013-02-20 11:57:00,53.0,42.0,30.09,WNW,296,7.0,8.0,66,0.00,,SKC,0.00,VWS V13.00,2013-02-20 16:57:00,
2013-02-20 12:02:00,53.4,42.3,30.09,WNW,301,8.0,8.0,66,0.00,,SKC,0.00,VWS V13.00,2013-02-20 17:02:00,
2013-02-20 12:07:00,53.7,42.6,30.08,NW,316,5.0,9.0,66,0.00,,SKC,0.00,VWS V13.00,2013-02-20 17:07:00,
2013-02-20 12:12:00,54.1,42.6,30.08,WSW,249,0.0,2.0,65,0.00,,SKC,0.00,VWS V13.00,2013-02-20 17:12:00,
2013-02-20 12:17:00,54.5,43.0,30.08,West,265,9.0,10.0,65,0.00,,SKC,0.00,VWS V13.00,2013-02-20 17:17:00,
2013-02-20 12:22:00,54.7,42.8,30.07,NE,52,3.0,6.0,64,0.00,,SKC,0.00,VWS V13.00,2013-02-20 17:22:00,
2013-02-20 12:27:00,55.0,43.1,30.07,West,281,6.0,10.0,64,0.00,,SKC,0.00,VWS V13.00,2013-02-20 17:27:00,
2013-02-20 12:32:00,55.1,42.8,30.07,West,262,9.0,9.0,63,0.00,,SKC,0.00,VWS V13.00,2013-02-20 17:32:00,
2013-02-20 12:37:00,55.3,42.9,30.07,WSW,239,6.0,9.0,63,0.00,,SKC,0.00,VWS V13.00,2013-02-20 17:37:00,
2013-02-20 12:42:00,55.6,43.2,30.07,WNW,298,11.0,12.0,63,0.00,,SKC,0.00,VWS V13.00,2013-02-20 17:42:00,
2013-02-20 12:47:00,55.6,42.4,30.06,NW,311,2.0,4.0,61,0.00,,SKC,0.00,VWS V13.00,2013-02-20 17:47:00,
2013-02-20 12:52:00,55.5,42.7,30.06,WSW,257,8.0,10.0,62,0.00,,SKC,0.00,VWS V13.00,2013-02-20 17:52:00,
2013-02-20 12:57:00,55.7,42.9,30.05,NW,319,3.0,10.0,62,0.00,,SKC,0.00,VWS V13.00,2013-02-20 17:57:00,
2013-02-20 13:02:00,55.8,42.6,30.05,SW,231,4.0,11.0,61,0.00,,SKC,0.00,VWS V13.00,2013-02-20 18:02:00,
2013-02-20 13:07:00,55.8,42.1,30.05,WNW,288,8.0,9.0,60,0.00,,SKC,0.00,VWS V13.00,2013-02-20 18:07:00,
2013-02-20 13:12:00,55.9,42.7,30.05,WNW,297,5.0,6.0,61,0.00,,SKC,0.00,VWS V13.00,2013-02-20 18:12:00,
2013-02-20 13:17:00,56.0,42.3,30.04,West,278,1.0,4.0,60,0.00,,SKC,0.00,VWS V13.00,2013-02-20 18:17:00,
2013-02-20 13:22:00,56.4,42.7,30.04,WNW,286,12.0,14.0,60,0.00,,SKC,0.00,VWS V13.00,2013-02-20 18:22:00,
2013-02-20 13:27:00,56.5,42.8,30.04,WNW,290,8.0,10.0,60,0.00,,SKC,0.00,VWS V13.00,2013-02-20 18:27:00,
2013-02-20 13:32:00,56.4,42.3,30.04,NNW,344,6.0,9.0,59,0.00,,SKC,0.00,VWS V13.00,2013-02-20 18:32:00,
2013-02-20 13:37:00,56.6,42.5,30.03,WNW,286,6.0,9.0,59,0.00,,SKC,0.00,VWS V13.00,2013-02-20 18:37:00,
2013-02-20 13:42:00,56.8,42.2,30.03,NNW,329,8.0,12.0,58,0.00,,SKC,0.00,VWS V13.00,2013-02-20 18:42:00,
2013-02-20 13:47:00,56.9,42.3,30.03,North,360,3.0,5.0,58,0.00,,SKC,0.00,VWS V13.00,2013-02-20 18:47:00,
2013-02-20 13:52:00,57.1,42.0,30.03,West,261,2.0,8.0,57,0.00,,SKC,0.00,VWS V13.00,2013-02-20 18:52:00,
2013-02-20 13:57:00,57.2,42.1,30.03,NW,304,12.0,13.0,57,0.00,,SKC,0.00,VWS V13.00,2013-02-20 18:57:00,
2013-02-20 14:02:00,57.3,42.2,30.03,NW,306,5.0,10.0,57,0.00,,SKC,0.00,VWS V13.00,2013-02-20 19:02:00,
2013-02-20 14:07:00,57.2,41.7,30.03,NW,322,2.0,11.0,56,0.00,,SKC,0.00,VWS V13.00,2013-02-20 19:07:00,
2013-02-20 14:12:00,57.1,41.6,30.03,NNW,327,1.0,4.0,56,0.00,,SKC,0.00,VWS V13.00,2013-02-20 19:12:00,
2013-02-20 14:17:00,57.3,41.8,30.03,WNW,298,4.0,10.0,56,0.00,,SKC,0.00,VWS V13.00,2013-02-20 19:17:00,
2013-02-20 14:22:00,57.4,41.8,30.03,SW,236,4.0,8.0,56,0.00,,SKC,0.00,VWS V13.00,2013-02-20 19:22:00,
2013-02-20 14:27:00,57.1,41.1,30.02,West,281,5.0,6.0,55,0.00,,SKC,0.00,VWS V13.00,2013-02-20 19:27:00,
2013-02-20 14:32:00,56.8,41.3,30.02,WSW,237,6.0,8.0,56,0.00,,SKC,0.00,VWS V13.00,2013-02-20 19:32:00,
2013-02-20 14:37:00,56.8,41.3,30.02,NW,311,7.0,10.0,56,0.00,,SKC,0.00,VWS V13.00,2013-02-20 19:37:00,
2013-02-20 14:42:00,56.9,40.9,30.02,NNW,335,6.0,10.0,55,0.00,,SKC,0.00,VWS V13.00,2013-02-20 19:42:00,
2013-02-20 14:47:00,57.2,41.2,30.02,NNW,333,3.0,5.0,55,0.00,,SKC,0.00,VWS V13.00,2013-02-20 19:47:00,
2013-02-20 14:52:00,57.7,42.1,30.02,WNW,301,2.0,4.0,56,0.00,,SKC,0.00,VWS V13.00,2013-02-20 19:52:00,
2013-02-20 14:57:00,58.0,41.9,30.02,WNW,284,4.0,5.0,55,0.00,,SKC,0.00,VWS V13.00,2013-02-20 19:57:00,
2013-02-20 15:02:00,58.1,41.6,30.02,WNW,300,5.0,6.0,54,0.00,,SKC,0.00,VWS V13.00,2013-02-20 20:02:00,
2013-02-20 15:07:00,57.8,41.3,30.02,West,261,4.0,7.0,54,0.00,,SKC,0.00,VWS V13.00,2013-02-20 20:07:00,
2013-02-20 15:12:00,57.8,41.3,30.02,West,275,0.0,6.0,54,0.00,,SKC,0.00,VWS V13.00,2013-02-20 20:12:00,
2013-02-20 15:17:00,57.8,41.3,30.02,WNW,301,8.0,11.0,54,0.00,,SKC,0.00,VWS V13.00,2013-02-20 20:17:00,
2013-02-20 15:22:00,57.2,40.2,30.02,WNW,288,11.0,12.0,53,0.00,,SKC,0.00,VWS V13.00,2013-02-20 20:22:00,
2013-02-20 15:27:00,56.4,39.5,30.03,NW,310,10.0,12.0,53,0.00,,SKC,0.00,VWS V13.00,2013-02-20 20:27:00,
2013-02-20 15:32:00,56.1,39.2,30.03,NW,319,8.0,10.0,53,0.00,,SKC,0.00,VWS V13.00,2013-02-20 20:32:00,
2013-02-20 15:37:00,56.0,39.1,30.03,NW,311,10.0,11.0,53,0.00,,SKC,0.00,VWS V13.00,2013-02-20 20:37:00,
2013-02-20 15:42:00,56.0,39.1,30.03,NW,309,14.0,14.0,53,0.00,,SKC,0.00,VWS V13.00,2013-02-20 20:42:00,
2013-02-20 15:47:00,55.9,39.0,30.02,West,269,8.0,8.0,53,0.00,,SKC,0.00,VWS V13.00,2013-02-20 20:47:00,
2013-02-20 15:52:00,56.0,39.1,30.03,NNW,328,4.0,4.0,53,0.00,,SKC,0.00,VWS V13.00,2013-02-20 20:52:00,
2013-02-20 15:57:00,55.7,38.4,30.02,NW,314,9.0,9.0,52,0.00,,SKC,0.00,VWS V13.00,2013-02-20 20:57:00,
2013-02-20 16:02:00,55.4,38.1,30.03,NW,321,7.0,8.0,52,0.00,,SKC,0.00,VWS V13.00,2013-02-20 21:02:00,
2013-02-20 16:07:00,55.2,37.9,30.03,NNW,327,7.0,7.0,52,0.00,,SKC,0.00,VWS V13.00,2013-02-20 21:07:00,
2013-02-20 16:12:00,54.9,38.1,30.03,West,270,4.0,4.0,53,0.00,,SKC,0.00,VWS V13.00,2013-02-20 21:12:00,
2013-02-20 16:17:00,54.8,38.0,30.03,SW,214,0.0,0.0,53,0.00,,SKC,0.00,VWS V13.00,2013-02-20 21:17:00,
2013-02-20 16:22:00,54.8,38.5,30.03,WSW,242,1.0,3.0,54,0.00,,SKC,0.00,VWS V13.00,2013-02-20 21:22:00,
2013-02-20 16:27:00,54.8,38.0,30.03,West,267,6.0,7.0,53,0.00,,SKC,0.00,VWS V13.00,2013-02-20 21:27:00,
2013-02-20 16:32:00,54.9,39.0,30.03,WSW,256,3.0,3.0,55,0.00,,SKC,0.00,VWS V13.00,2013-02-20 21:32:00,
2013-02-20 16:37:00,54.8,39.0,30.03,SW,229,0.0,4.0,55,0.00,,SKC,0.00,VWS V13.00,2013-02-20 21:37:00,
2013-02-20 16:42:00,54.4,39.0,30.03,West,271,3.0,4.0,56,0.00,,SKC,0.00,VWS V13.00,2013-02-20 21:42:00,
2013-02-20 16:47:00,53.8,38.9,30.04,WSW,247,2.0,6.0,57,0.00,,SKC,0.00,VWS V13.00,2013-02-20 21:47:00,
2013-02-20 16:52:00,53.3,38.9,30.03,West,261,5.0,9.0,58,0.00,,SKC,0.00,VWS V13.00,2013-02-20 21:52:00,
2013-02-20 16:57:00,52.9,39.0,30.03,West,260,10.0,13.0,59,0.00,,SKC,0.00,VWS V13.00,2013-02-20 21:57:00,
2013-02-20 17:02:00,52.5,38.6,30.04,West,266,5.0,11.0,59,0.00,,SKC,0.00,VWS V13.00,2013-02-20 22:02:00,
2013-02-20 17:07:00,52.3,38.8,30.04,SSW,206,3.0,5.0,60,0.00,,SKC,0.00,VWS V13.00,2013-02-20 22:07:00,
2013-02-20 17:12:00,52.1,38.7,30.04,SSW,210,10.0,15.0,60,0.00,,SKC,0.00,VWS V13.00,2013-02-20 22:12:00,
2013-02-20 17:17:00,51.5,38.5,30.04,WSW,250,3.0,7.0,61,0.00,,SKC,0.00,VWS V13.00,2013-02-20 22:17:00,
2013-02-20 17:22:00,51.1,38.5,30.05,WSW,237,9.0,11.0,62,0.00,,SKC,0.00,VWS V13.00,2013-02-20 22:22:00,
2013-02-20 17:27:00,50.8,38.3,30.05,SW,223,10.0,10.0,62,0.00,,SKC,0.00,VWS V13.00,2013-02-20 22:27:00,
2013-02-20 17:32:00,50.4,37.9,30.05,SW,221,8.0,10.0,62,0.00,,SKC,0.00,VWS V13.00,2013-02-20 22:32:00,
2013-02-20 17:37:00,50.1,38.0,30.05,WSW,239,6.0,12.0,63,0.00,,SKC,0.00,VWS V13.00,2013-02-20 22:37:00,
2013-02-20 17:42:00,49.7,37.6,30.06,West,261,7.0,8.0,63,0.00,,SKC,0.00,VWS V13.00,2013-02-20 22:42:00,
2013-02-20 17:47:00,49.4,37.3,30.06,WSW,241,7.0,11.0,63,0.00,,SKC,0.00,VWS V13.00,2013-02-20 22:47:00,
2013-02-20 17:52:00,49.2,37.6,30.06,WSW,254,5.0,8.0,64,0.00,,SKC,0.00,VWS V13.00,2013-02-20 22:52:00,
2013-02-20 17:57:00,48.9,37.3,30.07,SW,217,5.0,8.0,64,0.00,,SKC,0.00,VWS V13.00,2013-02-20 22:57:00,
2013-02-20 18:02:00,48.7,37.1,30.07,WSW,240,9.0,9.0,64,0.00,,SKC,0.00,VWS V13.00,2013-02-20 23:02:00,
2013-02-20 18:07:00,48.6,37.4,30.07,West,261,7.0,10.0,65,0.00,,SKC,0.00,VWS V13.00,2013-02-20 23:07:00,
2013-02-20 18:12:00,48.5,37.3,30.07,SSW,196,7.0,14.0,65,0.00,,SKC,0.00,VWS V13.00,2013-02-20 23:12:00,
2013-02-20 18:17:00,48.4,37.2,30.08,WSW,242,5.0,9.0,65,0.00,,SKC,0.00,VWS V13.00,2013-02-20 23:17:00,
2013-02-20 18:22:00,48.3,37.1,30.08,West,275,4.0,9.0,65,0.00,,SKC,0.00,VWS V13.00,2013-02-20 23:22:00,
2013-02-20 18:27:00,48.2,37.0,30.08,WSW,250,6.0,13.0,65,0.00,,SKC,0.00,VWS V13.00,2013-02-20 23:27:00,
2013-02-20 18:32:00,48.1,36.9,30.08,West,277,4.0,9.0,65,0.00,,SKC,0.00,VWS V13.00,2013-02-20 23:32:00,
2013-02-20 18:37:00,48.1,37.3,30.08,West,268,4.0,5.0,66,0.00,,SKC,0.00,VWS V13.00,2013-02-20 23:37:00,
2013-02-20 18:42:00,47.9,37.1,30.08,WSW,249,4.0,5.0,66,0.00,,SKC,0.00,VWS V13.00,2013-02-20 23:42:00,
2013-02-20 18:47:00,47.9,37.1,30.08,WSW,250,3.0,8.0,66,0.00,,SKC,0.00,VWS V13.00,2013-02-20 23:47:00,
2013-02-20 18:52:00,47.8,37.0,30.08,WSW,252,4.0,5.0,66,0.00,,SKC,0.00,VWS V13.00,2013-02-20 23:52:00,
2013-02-20 18:57:00,47.7,36.9,30.09,West,261,4.0,4.0,66,0.00,,SKC,0.00,VWS V13.00,2013-02-20 23:57:00,
2013-02-20 19:02:00,47.6,36.8,30.09,WSW,253,2.0,5.0,66,0.00,,SKC,0.00,VWS V13.00,2013-02-21 00:02:00,
2013-02-20 19:07:00,47.5,37.1,30.09,West,277,2.0,3.0,67,0.00,,SKC,0.00,VWS V13.00,2013-02-21 00:07:00,
2013-02-20 19:12:00,47.4,37.0,30.09,West,266,2.0,2.0,67,0.00,,SKC,0.00,VWS V13.00,2013-02-21 00:12:00,
2013-02-20 19:17:00,47.4,37.0,30.09,West,265,3.0,3.0,67,0.00,,SKC,0.00,VWS V13.00,2013-02-21 00:17:00,
2013-02-20 19:22:00,47.2,36.8,30.09,West,273,0.0,0.0,67,0.00,,SKC,0.00,VWS V13.00,2013-02-21 00:22:00,
2013-02-20 19:27:00,47.2,36.8,30.09,WSW,244,0.0,3.0,67,0.00,,SKC,0.00,VWS V13.00,2013-02-21 00:27:00,
2013-02-20 19:32:00,47.0,36.6,30.09,West,269,0.0,0.0,67,0.00,,SKC,0.00,VWS V13.00,2013-02-21 00:32:00,
2013-02-20 19:37:00,46.9,36.5,30.09,West,269,2.0,2.0,67,0.00,,SKC,0.00,VWS V13.00,2013-02-21 00:37:00,
2013-02-20 19:42:00,46.8,36.8,30.10,West,281,0.0,1.0,68,0.00,,SKC,0.00,VWS V13.00,2013-02-21 00:42:00,
2013-02-20 19:47:00,46.7,36.7,30.10,West,281,1.0,2.0,68,0.00,,SKC,0.00,VWS V13.00,2013-02-21 00:47:00,
2013-02-20 19:52:00,46.5,36.5,30.10,West,281,1.0,2.0,68,0.00,,SKC,0.00,VWS V13.00,2013-02-21 00:52:00,
2013-02-20 19:57:00,46.2,36.2,30.10,West,281,0.0,0.0,68,0.00,,SKC,0.00,VWS V13.00,2013-02-21 00:57:00,
2013-02-20 20:02:00,45.9,36.0,30.10,West,281,0.0,0.0,68,0.00,,SKC,0.00,VWS V13.00,2013-02-21 01:02:00,
2013-02-20 20:07:00,45.5,35.6,30.10,West,281,0.0,0.0,68,0.00,,SKC,0.00,VWS V13.00,2013-02-21 01:07:00,
2013-02-20 20:12:00,45.1,35.2,30.11,West,281,0.0,0.0,68,0.00,,SKC,0.00,VWS V13.00,2013-02-21 01:12:00,
2013-02-20 20:17:00,44.8,34.9,30.10,West,281,0.0,1.0,68,0.00,,SKC,0.00,VWS V13.00,2013-02-21 01:17:00,
2013-02-20 20:22:00,44.3,34.4,30.11,West,281,0.0,1.0,68,0.00,,SKC,0.00,VWS V13.00,2013-02-21 01:22:00,
2013-02-20 20:27:00,43.9,34.0,30.11,West,281,0.0,0.0,68,0.00,,SKC,0.00,VWS V13.00,2013-02-21 01:27:00,
2013-02-20 20:32:00,43.5,34.0,30.11,West,281,0.0,0.0,69,0.00,,SKC,0.00,VWS V13.00,2013-02-21 01:32:00,
2013-02-20 20:37:00,43.0,33.5,30.11,West,281,0.0,1.0,69,0.00,,SKC,0.00,VWS V13.00,2013-02-21 01:37:00,
2013-02-20 20:42:00,42.6,33.2,30.11,West,281,0.0,0.0,69,0.00,,SKC,0.00,VWS V13.00,2013-02-21 01:42:00,
2013-02-20 20:47:00,42.3,32.9,30.11,West,281,0.0,0.0,69,0.00,,SKC,0.00,VWS V13.00,2013-02-21 01:47:00,
2013-02-20 20:52:00,41.9,32.5,30.11,West,281,0.0,1.0,69,0.00,,SKC,0.00,VWS V13.00,2013-02-21 01:52:00,
2013-02-20 20:57:00,41.6,32.2,30.11,West,281,2.0,3.0,69,0.00,,SKC,0.00,VWS V13.00,2013-02-21 01:57:00,
2013-02-20 21:02:00,41.3,31.9,30.11,West,281,0.0,0.0,69,0.00,,SKC,0.00,VWS V13.00,2013-02-21 02:02:00,
2013-02-20 21:07:00,41.0,31.6,30.11,West,281,0.0,0.0,69,0.00,,SKC,0.00,VWS V13.00,2013-02-21 02:07:00,
2013-02-20 21:12:00,40.7,31.3,30.11,West,281,2.0,2.0,69,0.00,,SKC,0.00,VWS V13.00,2013-02-21 02:12:00,
2013-02-20 21:17:00,40.5,31.5,30.11,West,281,1.0,2.0,70,0.00,,SKC,0.00,VWS V13.00,2013-02-21 02:17:00,
2013-02-20 21:22:00,40.3,31.3,30.12,West,281,1.0,1.0,70,0.00,,SKC,0.00,VWS V13.00,2013-02-21 02:22:00,
2013-02-20 21:27:00,40.1,31.1,30.12,West,281,0.0,0.0,70,0.00,,SKC,0.00,VWS V13.00,2013-02-21 02:27:00,
2013-02-20 21:32:00,39.8,30.8,30.12,West,281,0.0,0.0,70,0.00,,SKC,0.00,VWS V13.00,2013-02-21 02:32:00,
2013-02-20 21:37:00,39.6,30.6,30.11,West,281,0.0,0.0,70,0.00,,SKC,0.00,VWS V13.00,2013-02-21 02:37:00,
2013-02-20 21:42:00,39.5,30.5,30.11,West,281,0.0,0.0,70,0.00,,SKC,0.00,VWS V13.00,2013-02-21 02:42:00,
2013-02-20 21:47:00,39.4,30.4,30.12,West,281,0.0,0.0,70,0.00,,SKC,0.00,VWS V13.00,2013-02-21 02:47:00,
2013-02-20 21:52:00,39.2,30.2,30.12,West,281,0.0,0.0,70,0.00,,SKC,0.00,VWS V13.00,2013-02-21 02:52:00,
2013-02-20 21:57:00,39.1,30.2,30.12,West,281,0.0,0.0,70,0.00,,SKC,0.00,VWS V13.00,2013-02-21 02:57:00,
2013-02-20 22:02:00,39.0,30.1,30.12,West,281,0.0,0.0,70,0.00,,SKC,0.00,VWS V13.00,2013-02-21 03:02:00,
2013-02-20 22:07:00,38.9,30.0,30.13,West,281,0.0,0.0,70,0.00,,SKC,0.00,VWS V13.00,2013-02-21 03:07:00,
2013-02-20 22:12:00,38.8,29.9,30.13,West,281,0.0,0.0,70,0.00,,SKC,0.00,VWS V13.00,2013-02-21 03:12:00,
2013-02-20 22:17:00,38.7,30.1,30.13,West,281,0.0,0.0,71,0.00,,SKC,0.00,VWS V13.00,2013-02-21 03:17:00,
2013-02-20 22:22:00,38.6,30.0,30.13,West,281,0.0,0.0,71,0.00,,SKC,0.00,VWS V13.00,2013-02-21 03:22:00,
2013-02-20 22:27:00,38.4,29.8,30.13,West,281,0.0,1.0,71,0.00,,SKC,0.00,VWS V13.00,2013-02-21 03:27:00,
2013-02-20 22:32:00,38.2,29.6,30.13,West,281,0.0,0.0,71,0.00,,SKC,0.00,VWS V13.00,2013-02-21 03:32:00,
2013-02-20 22:37:00,38.0,29.5,30.13,West,281,0.0,0.0,71,0.00,,SKC,0.00,VWS V13.00,2013-02-21 03:37:00,
2013-02-20 22:42:00,37.9,29.4,30.12,West,281,0.0,0.0,71,0.00,,SKC,0.00,VWS V13.00,2013-02-21 03:42:00,
2013-02-20 22:47:00,37.8,29.3,30.12,West,281,0.0,0.0,71,0.00,,SKC,0.00,VWS V13.00,2013-02-21 03:47:00,
2013-02-20 22:52:00,37.7,29.2,30.12,West,281,0.0,0.0,71,0.00,,SKC,0.00,VWS V13.00,2013-02-21 03:52:00,
2013-02-20 22:57:00,37.6,29.1,30.12,West,281,0.0,1.0,71,0.00,,SKC,0.00,VWS V13.00,2013-02-21 03:57:00,
2013-02-20 23:02:00,37.4,28.9,30.12,West,281,1.0,1.0,71,0.00,,SKC,0.00,VWS V13.00,2013-02-21 04:02:00,
2013-02-20 23:07:00,37.3,29.1,30.12,West,281,0.0,0.0,72,0.00,,SKC,0.00,VWS V13.00,2013-02-21 04:07:00,
2013-02-20 23:12:00,37.1,28.6,30.12,West,281,0.0,1.0,71,0.00,,SKC,0.00,VWS V13.00,2013-02-21 04:12:00,
2013-02-20 23:17:00,37.0,28.8,30.12,West,281,0.0,0.0,72,0.00,,SKC,0.00,VWS V13.00,2013-02-21 04:17:00,
2013-02-20 23:22:00,36.8,28.6,30.11,West,281,0.0,1.0,72,0.00,,SKC,0.00,VWS V13.00,2013-02-21 04:22:00,
2013-02-20 23:27:00,36.6,28.4,30.11,West,281,0.0,0.0,72,0.00,,SKC,0.00,VWS V13.00,2013-02-21 04:27:00,
2013-02-20 23:32:00,36.5,28.4,30.11,West,281,0.0,0.0,72,0.00,,SKC,0.00,VWS V13.00,2013-02-21 04:32:00,
2013-02-20 23:37:00,36.3,28.1,30.11,West,281,0.0,0.0,72,0.00,,SKC,0.00,VWS V13.00,2013-02-21 04:37:00,
2013-02-20 23:42:00,36.2,28.1,30.11,West,281,0.0,0.0,72,0.00,,SKC,0.00,VWS V13.00,2013-02-21 04:42:00,
2013-02-20 23:47:00,36.1,28.0,30.11,West,281,1.0,1.0,72,0.00,,SKC,0.00,VWS V13.00,2013-02-21 04:47:00,
2013-02-20 23:52:00,35.9,27.8,30.11,West,281,0.0,0.0,72,0.00,,SKC,0.00,VWS V13.00,2013-02-21 04:52:00,
2013-02-20 23:57:00,35.7,27.6,30.10,West,281,0.0,0.0,72,0.00,,SKC,0.00,VWS V13.00,2013-02-21 04:57:00,